CW0238 Weather Reports


time (UTC)temp
C
wind
direction
speed
KPH
gust
KPH
rain 1hr
cm
rain 24hr
cm
rain mn
cm
humidity
%
barometer
mb
20260905204944 36 337 1.6 4.8 0.00 0.00 0.00 45 1010.9
20260905204442 35 83 1.6 3.2 0.00 0.00 0.00 48 1011.0
20260905203945 35 238 1.6 3.2 0.00 0.00 0.00 48 1011.1
20260905203436 35 82 1.6 9.7 0.00 0.00 0.00 46 1011.1
20260905202937 36 339 1.6 9.7 0.00 0.00 0.00 44 1011.2
20260905201938 36 23 3.2 9.7 0.00 0.00 0.00 45 1011.3
20260905201437 36 312 3.2 9.7 0.00 0.00 0.00 42 1011.4
20260905200936 36 329 1.6 9.7 0.00 0.00 0.00 45 1011.4
20260905200703 35 333 1.6 9.7 0.00 0.00 0.00 47 1011.5
20260905195933 35 333 3.2 9.7 0.00 0.00 0.00 45 1011.5
20260905195435 35 20 3.2 6.4 0.00 0.00 0.00 46 1011.6
20260905194936 35 296 1.6 6.4 0.00 0.00 0.00 48 1011.6
20260905194430 35 353 1.6 4.8 0.00 0.00 0.00 47 1011.7
20260905193928 35 26 1.6 4.8 0.00 0.00 0.00 47 1011.9
20260905193429 35 283 1.6 9.7 0.00 0.00 0.00 48 1012.0
20260905192928 35 296 1.6 9.7 0.00 0.00 0.00 46 1012.1
20260905192430 35 293 1.6 9.7 0.00 0.00 0.00 44 1012.1
20260905191928 35 108 1.6 9.7 0.00 0.00 0.00 45 1012.0
20260905191648 35 253 1.6 8.0 0.00 0.00 0.00 47 1012.1
20260905190924 34 317 0.0 3.2 0.00 0.00 0.00 50 1012.2
20260905190423 33 325 0.0 1.6 0.00 0.00 0.00 52 1012.3
20260905190149 34 325 1.6 3.2 0.00 0.00 0.00 51 1012.4
20260905185416 34 325 1.6 6.4 0.00 0.00 0.00 49 1012.4
20260905184914 35 323 1.6 6.4 0.00 0.00 0.00 47 1012.5
20260905183910 33 286 0.0 1.6 0.00 0.00 0.00 51 1012.6
20260905183409 33 286 0.0 1.6 0.00 0.00 0.00 51 1012.7
20260905182907 33 286 1.6 4.8 0.00 0.00 0.00 51 1012.8
20260905182406 34 286 1.6 4.8 0.00 0.00 0.00 49 1012.8
20260905181905 34 302 1.6 11.3 0.00 0.00 0.00 48 1012.9
20260905181404 34 321 3.2 11.3 0.00 0.00 0.00 50 1012.8
20260905180906 34 0 1.6 9.7 0.00 0.00 0.00 50 1012.9
20260905180620 33 321 1.6 4.8 0.00 0.00 0.00 54 1012.9
20260905175901 33 323 3.2 6.4 0.00 0.00 0.00 50 1012.9
20260905175629 33 288 3.2 6.4 0.00 0.00 0.00 49 1013.0
20260905174858 33 266 3.2 9.7 0.00 0.00 0.00 53 1013.0
20260905174626 33 327 3.2 9.7 0.00 0.00 0.00 53 1013.1
20260905173855 32 296 1.6 9.7 0.00 0.00 0.00 51 1013.1
20260905173615 32 336 1.6 3.2 0.00 0.00 0.00 53 1013.2
20260905172851 32 40 1.6 3.2 0.00 0.00 0.00 53 1013.3
20260905172348 32 38 1.6 4.8 0.00 0.00 0.00 54 1013.4
20260905171618 32 284 1.6 4.8 0.00 0.00 0.00 52 1013.4
20260905170843 32 194 0.0 4.8 0.00 0.00 0.00 55 1013.3
20260905170341 32 169 0.0 3.2 0.00 0.00 0.00 56 1013.6
20260905165840 31 138 0.0 3.2 0.00 0.00 0.00 59 1013.7
20260905165339 31 76 0.0 3.2 0.00 0.00 0.00 58 1013.9
20260905164850 31 240 0.0 3.2 0.00 0.00 0.00 57 1014.0
20260905164330 31 240 1.6 4.8 0.00 0.00 0.00 58 1014.1
20260905163835 31 238 1.6 4.8 0.00 0.00 0.00 58 1014.2
20260905163326 30 242 0.0 3.2 0.00 0.00 0.00 59 1014.3
20260905162827 30 243 1.6 4.8 0.00 0.00 0.00 61 1014.3
20260905162326 30 244 1.6 4.8 0.00 0.00 0.00 60 1014.4
20260905161826 30 224 1.6 6.4 0.00 0.00 0.00 61 1014.3
20260905161323 30 244 1.6 6.4 0.00 0.00 0.00 62 1014.4
20260905160823 29 276 1.6 6.4 0.00 0.00 0.00 63 1014.3
20260905160327 29 226 0.0 1.6 0.00 0.00 0.00 65 1014.4
20260905155822 29 267 0.0 3.2 0.00 0.00 0.00 65 1014.4
20260905155324 28 268 0.0 3.2 0.00 0.00 0.00 65 1014.3
20260905154823 28 270 0.0 3.2 0.00 0.00 0.00 66 1014.3
20260905154323 28 275 0.0 3.2 0.00 0.00 0.00 65 1014.5
20260905153316 28 275 0.0 4.8 0.00 0.00 0.00 67 1014.6
20260905152816 28 281 0.0 4.8 0.00 0.00 0.00 68 1014.6
20260905152313 27 324 0.0 4.8 0.00 0.00 0.00 68 1014.7
20260905151812 27 269 0.0 3.2 0.00 0.00 0.00 69 1014.6
20260905151312 27 348 0.0 4.8 0.00 0.00 0.00 70 1014.6
20260905150814 27 63 0.0 4.8 0.00 0.00 0.00 71 1014.6
20260905150309 27 227 0.0 6.4 0.00 0.00 0.00 71 1014.8
20260905145807 27 227 0.0 6.4 0.00 0.00 0.00 72 1014.8
20260905145307 26 105 0.0 3.2 0.00 0.00 0.00 73 1014.9
20260905144808 26 111 1.6 3.2 0.00 0.00 0.00 73 1014.9
20260905144304 26 227 0.0 3.2 0.00 0.00 0.00 74 1015.0
20260905143800 26 229 0.0 3.2 0.00 0.00 0.00 74 1014.9
20260905143302 26 260 1.6 3.2 0.00 0.00 0.00 75 1014.9
20260905142802 26 260 1.6 6.4 0.00 0.00 0.00 75 1014.8
20260905142305 26 215 1.6 6.4 0.00 0.00 0.00 77 1014.8
20260905141814 26 49 0.0 4.8 0.00 0.00 0.00 77 1015.0
20260905141532 26 47 0.0 3.2 0.00 0.00 0.00 77 1015.1
20260905140801 26 292 0.0 3.2 0.00 0.00 0.00 78 1015.1
20260905140257 25 290 0.0 3.2 0.00 0.00 0.00 78 1015.1
20260905140025 25 53 0.0 4.8 0.00 0.00 0.00 78 1015.3
20260905135511 25 53 0.0 4.8 0.00 0.00 0.00 79 1015.1
20260905134754 25 53 0.0 3.2 0.00 0.00 0.00 79 1015.2
20260905134249 25 53 0.0 3.2 0.00 0.00 0.00 80 1015.3
20260905133749 25 53 0.0 3.2 0.00 0.00 0.00 80 1015.4
20260905133248 25 53 0.0 3.2 0.00 0.00 0.00 80 1015.4
20260905133018 25 53 0.0 3.2 0.00 0.00 0.00 80 1015.4
20260905132248 25 48 1.6 3.2 0.00 0.00 0.00 81 1015.7
20260905131746 25 302 0.0 3.2 0.00 0.00 0.00 83 1015.7
20260905131246 25 312 0.0 0.0 0.00 0.00 0.00 85 1015.6
20260905130746 25 312 0.0 0.0 0.00 0.00 0.00 86 1015.9
20260905130243 25 312 0.0 0.0 0.00 0.00 0.00 86 1015.8
20260905125743 25 312 0.0 0.0 0.00 0.00 0.00 87 1015.5
20260905125241 25 312 0.0 0.0 0.00 0.00 0.00 87 1015.2
20260905124740 25 312 0.0 0.0 0.00 0.00 0.00 87 1014.8
20260905123739 25 312 0.0 0.0 0.00 0.00 0.00 87 1014.6
20260905123238 25 312 0.0 0.0 0.00 0.00 0.00 87 1014.7
20260905122739 25 312 0.0 0.0 0.00 0.00 0.00 87 1014.3
20260905122237 25 312 0.0 0.0 0.00 0.00 0.00 87 1014.4
20260905121732 25 312 0.0 0.0 0.00 0.00 0.00 87 1014.5
20260905121233 25 312 0.0 0.0 0.00 0.00 0.00 87 1014.4
20260905120730 25 312 0.0 0.0 0.00 0.00 0.00 87 1014.6
20260905120230 25 312 0.0 0.0 0.00 0.00 0.00 87 1014.5
20260905115730 25 312 0.0 0.0 0.00 0.00 0.00 86 1014.3
20260905115504 25 312 0.0 3.2 0.00 0.00 0.00 86 1014.3
20260905114732 25 312 0.0 3.2 0.00 0.00 0.00 86 1014.1
20260905114228 25 312 0.0 1.6 0.00 0.00 0.00 86 1014.1
20260905113955 25 312 0.0 0.0 0.00 0.00 0.00 86 1014.2
20260905113228 25 312 0.0 0.0 0.00 0.00 0.00 86 1014.0
20260905112728 25 312 0.0 0.0 0.00 0.00 0.00 86 1013.8
20260905112225 25 312 0.0 3.2 0.00 0.00 0.00 86 1013.8
20260905111724 25 312 0.0 3.2 0.00 0.00 0.00 86 1014.0
20260905111224 25 312 0.0 0.0 0.00 0.00 0.00 86 1013.5
20260905110724 25 312 0.0 0.0 0.00 0.00 0.00 86 1013.3
20260905110224 25 312 0.0 0.0 0.00 0.00 0.00 86 1013.2
20260905105723 25 312 0.0 0.0 0.00 0.00 0.00 86 1013.1
20260905105223 25 312 0.0 0.0 0.00 0.00 0.00 86 1013.1
20260905104721 25 312 0.0 0.0 0.00 0.00 0.00 86 1013.1
20260905104218 25 312 0.0 0.0 0.00 0.00 0.00 86 1013.0
20260905103716 25 312 0.0 0.0 0.00 0.00 0.00 86 1012.9
20260905103446 25 312 0.0 0.0 0.00 0.00 0.00 86 1013.0
20260905102942 25 312 0.0 0.0 0.00 0.00 0.00 86 1013.0
20260905102221 25 312 0.0 0.0 0.00 0.00 0.00 86 1012.9
20260905101716 25 312 0.0 0.0 0.00 0.00 0.00 86 1013.1
20260905101231 25 312 0.0 0.0 0.00 0.00 0.00 86 1013.1
20260905100715 25 312 0.0 0.0 0.00 0.00 0.00 86 1013.1
20260905100442 25 312 0.0 0.0 0.00 0.00 0.00 86 1013.1
20260905095710 25 312 0.0 0.0 0.00 0.00 0.00 86 1013.1
20260905095209 25 312 0.0 0.0 0.00 0.00 0.00 86 1013.1
20260905094709 25 312 0.0 0.0 0.00 0.00 0.00 86 1013.1
20260905094208 25 312 0.0 1.6 0.00 0.00 0.00 86 1013.1
20260905093704 25 312 0.0 1.6 0.00 0.00 0.00 86 1013.0
20260905093205 25 312 0.0 0.0 0.00 0.00 0.00 86 1012.9
20260905092704 25 312 0.0 0.0 0.00 0.00 0.00 85 1012.9
20260905092204 25 312 0.0 0.0 0.00 0.00 0.00 86 1012.8
20260905091658 25 312 0.0 0.0 0.00 0.00 0.00 86 1012.9
20260905091157 25 312 0.0 1.6 0.00 0.00 0.00 86 1012.9
20260905090657 25 312 0.0 4.8 0.00 0.00 0.00 86 1012.9
20260905090156 25 312 0.0 4.8 0.00 0.00 0.00 86 1012.8
20260905085654 25 315 0.0 3.2 0.00 0.00 0.00 86 1012.8
20260905085413 25 315 0.0 0.0 0.00 0.00 0.00 86 1012.5
20260905084650 25 315 0.0 0.0 0.00 0.00 0.00 86 1012.4
20260905084148 25 315 0.0 0.0 0.00 0.00 0.00 86 1012.5
20260905083651 25 315 0.0 0.0 0.00 0.00 0.00 85 1012.5
20260905083146 25 315 0.0 0.0 0.00 0.00 0.00 85 1012.6
20260905082648 25 315 0.0 0.0 0.00 0.00 0.00 85 1012.5
20260905082146 25 315 0.0 0.0 0.00 0.00 0.00 85 1012.5
20260905081645 25 315 0.0 0.0 0.00 0.00 0.00 85 1012.5
20260905081138 25 315 0.0 0.0 0.00 0.00 0.00 85 1012.5
20260905080640 25 315 0.0 1.6 0.00 0.00 0.00 86 1012.5
20260905080357 25 315 0.0 1.6 0.00 0.00 0.00 85 1012.6
20260905075641 25 315 0.0 0.0 0.00 0.00 0.00 85 1012.5
20260905075139 25 315 0.0 0.0 0.00 0.00 0.00 84 1012.4
20260905074634 25 315 0.0 0.0 0.00 0.00 0.00 84 1012.5
20260905074134 25 315 0.0 0.0 0.00 0.00 0.00 84 1012.5
20260905073854 25 315 0.0 0.0 0.00 0.00 0.00 84 1012.5
20260905073132 25 315 0.0 0.0 0.00 0.00 0.00 84 1012.6
20260905072856 25 315 0.0 1.6 0.00 0.00 0.00 84 1012.8
20260905072355 25 315 0.0 1.6 0.00 0.00 0.00 83 1012.8
20260905071630 25 315 0.0 0.0 0.00 0.00 0.00 83 1012.7
20260905071130 25 315 0.0 0.0 0.00 0.00 0.00 83 1012.7
20260905070846 25 315 0.0 0.0 0.00 0.00 0.00 83 1012.8
20260905070127 25 315 0.0 0.0 0.00 0.00 0.00 84 1013.0
20260905065626 25 315 0.0 0.0 0.00 0.00 0.00 84 1012.9
20260905065125 25 315 0.0 0.0 0.00 0.00 0.00 84 1012.9
20260905064623 25 315 0.0 0.0 0.00 0.00 0.00 84 1013.0
20260905064344 25 315 0.0 0.0 0.00 0.00 0.00 84 1013.2
20260905063622 25 315 0.0 0.0 0.00 0.00 0.00 84 1013.2
20260905063115 25 315 0.0 0.0 0.00 0.00 0.00 84 1013.2
20260905062614 25 315 0.0 0.0 0.00 0.00 0.00 84 1013.3
20260905062128 25 315 0.0 0.0 0.00 0.00 0.00 84 1013.4
20260905061609 25 315 0.0 0.0 0.00 0.00 0.00 84 1013.5
20260905061123 25 315 0.0 0.0 0.00 0.00 0.00 83 1013.5
20260905060609 25 315 0.0 0.0 0.00 0.00 0.00 83 1013.5
20260905060104 25 315 0.0 0.0 0.00 0.00 0.00 84 1013.6
20260905055825 25 315 0.0 0.0 0.00 0.00 0.00 84 1013.7
20260905055101 25 315 0.0 0.0 0.00 0.00 0.00 83 1013.6
20260905054557 25 315 0.0 0.0 0.00 0.00 0.00 83 1013.6
20260905054100 25 315 0.0 0.0 0.00 0.00 0.00 83 1013.6
20260905053551 26 315 0.0 0.0 0.00 0.00 0.00 82 1013.6
20260905053312 26 315 0.0 0.0 0.00 0.00 0.00 82 1013.7
20260905052550 26 315 0.0 0.0 0.00 0.00 0.00 83 1013.7
20260905052051 25 315 0.0 0.0 0.00 0.00 0.00 83 1013.7
20260905051549 25 315 0.0 0.0 0.00 0.00 0.00 83 1013.7
20260905051308 25 315 0.0 0.0 0.00 0.00 0.00 83 1013.7
20260905050545 25 315 0.0 0.0 0.00 0.00 0.00 82 1013.7
20260905050055 26 315 0.0 0.0 0.00 0.00 0.00 82 1013.7
20260905045547 26 315 0.0 0.0 0.00 0.00 0.00 82 1013.7
20260905045036 26 315 0.0 0.0 0.00 0.00 0.00 81 1013.7
20260905044537 26 315 0.0 0.0 0.00 0.00 0.00 81 1013.8
20260905044032 26 315 0.0 0.0 0.00 0.00 0.00 81 1013.8
20260905043532 26 315 0.0 0.0 0.00 0.00 0.00 81 1013.7
20260905043034 26 315 0.0 0.0 0.00 0.00 0.00 81 1013.7
20260905042536 26 315 0.0 0.0 0.00 0.00 0.00 81 1013.7
20260905042250 26 315 0.0 0.0 0.00 0.00 0.00 81 1013.7
20260905041525 26 315 0.0 0.0 0.00 0.00 0.00 81 1013.7
20260905041023 26 315 0.0 0.0 0.00 0.00 0.00 81 1013.6
20260905040756 26 315 0.0 0.0 0.00 0.00 0.00 81 1013.7
20260905040020 26 315 0.0 0.0 0.00 0.00 0.00 81 1013.6
20260905035520 26 315 0.0 0.0 0.00 0.00 0.00 81 1013.7
20260905034512 26 315 0.0 0.0 0.00 0.00 0.00 80 1013.7
20260905034015 26 315 0.0 0.0 0.00 0.00 0.00 80 1013.7
20260905033506 26 315 0.0 0.0 0.00 0.00 0.00 79 1013.8
20260905033004 27 315 0.0 0.0 0.00 0.00 0.00 78 1013.7
20260905032509 27 315 0.0 0.0 0.00 0.00 0.00 78 1013.8
20260905032004 27 315 0.0 0.0 0.00 0.00 0.00 78 1013.8
20260905031504 27 315 0.0 0.0 0.00 0.00 0.00 78 1013.8
20260905031005 27 315 0.0 0.0 0.00 0.00 0.00 78 1013.8
20260905030720 27 315 0.0 0.0 0.00 0.00 0.00 77 1013.9
20260905025456 27 315 0.0 0.0 0.00 0.00 0.00 76 1013.9
20260905024950 27 315 0.0 0.0 0.00 0.00 0.00 77 1013.9
20260905024449 27 315 0.0 0.0 0.00 0.00 0.00 78 1013.8
20260905024213 27 315 0.0 0.0 0.00 0.00 0.00 78 1013.8
20260905023448 27 315 0.0 0.0 0.00 0.00 0.00 77 1013.7
20260905022953 27 315 0.0 0.0 0.00 0.00 0.00 77 1013.6
20260905022448 27 315 0.0 0.0 0.00 0.00 0.00 77 1013.6
20260905021951 27 315 0.0 0.0 0.00 0.00 0.00 76 1013.6
20260905021448 27 315 0.0 0.0 0.00 0.00 0.00 77 1013.6
20260905020948 27 315 0.0 0.0 0.00 0.00 0.00 76 1013.6
20260905020447 28 315 0.0 0.0 0.00 0.00 0.00 76 1013.6
20260905020210 28 315 0.0 0.0 0.00 0.00 0.00 75 1013.5
20260905015447 28 315 0.0 0.0 0.00 0.00 0.00 74 1013.5
20260905015218 28 315 0.0 0.0 0.00 0.00 0.00 73 1013.5
20260905014717 28 315 0.0 0.0 0.00 0.00 0.00 72 1013.5
20260905014210 29 315 0.0 0.0 0.00 0.00 0.00 72 1013.4
20260905013444 29 315 0.0 0.0 0.00 0.00 0.00 72 1013.4
20260905012943 29 315 0.0 0.0 0.00 0.00 0.00 72 1013.3
20260905012704 29 315 0.0 0.0 0.00 0.00 0.00 73 1013.4
20260905012158 28 315 0.0 0.0 0.00 0.00 0.00 74 1013.3
20260905011436 29 315 0.0 0.0 0.00 0.00 0.00 73 1013.2
20260905010938 29 315 0.0 0.0 0.00 0.00 0.00 73 1013.1
20260905010703 29 315 0.0 0.0 0.00 0.00 0.00 72 1013.1
20260905005937 30 315 0.0 0.0 0.00 0.00 0.00 71 1013.0
20260905005707 30 315 0.0 0.0 0.00 0.00 0.00 71 1013.0
20260905004936 30 315 0.0 0.0 0.00 0.00 0.00 71 1012.9
20260905004428 30 315 0.0 0.0 0.00 0.00 0.00 72 1012.9
20260905004148 30 315 0.0 0.0 0.00 0.00 0.00 72 1012.9
20260905003428 30 315 0.0 0.0 0.00 0.00 0.00 71 1012.8
20260905002924 30 315 0.0 0.0 0.00 0.00 0.00 70 1012.8
20260905002650 30 315 0.0 0.0 0.00 0.00 0.00 70 1012.8
20260905001924 31 315 0.0 0.0 0.00 0.00 0.00 70 1012.7
20260905001433 31 315 0.0 0.0 0.00 0.00 0.00 69 1012.6
20260905000919 31 315 0.0 0.0 0.00 0.00 0.00 67 1012.6
20260905000418 32 315 0.0 0.0 0.00 0.00 0.00 66 1012.7
20260904235914 32 315 0.0 0.0 0.00 0.00 0.00 64 1012.7
20260904235413 32 315 0.0 0.0 0.00 0.00 0.00 63 1012.7
20260904234913 32 315 0.0 0.0 0.00 0.00 0.00 63 1012.6
20260904234634 32 315 0.0 0.0 0.00 0.00 0.00 62 1012.7
20260904233910 33 315 0.0 0.0 0.00 0.00 0.00 59 1012.8
20260904233411 33 315 0.0 0.0 0.00 0.00 0.00 58 1012.8
20260904233129 33 315 0.0 0.0 0.00 0.00 0.00 54 1012.7
20260904232622 33 315 0.0 0.0 0.00 0.00 0.00 52 1012.7
20260904231906 34 315 0.0 0.0 0.00 0.00 0.00 51 1012.8
20260904231403 34 315 0.0 3.2 0.00 0.00 0.00 50 1012.8
20260904230907 35 318 0.0 3.2 0.00 0.00 0.00 51 1012.8
20260904230401 35 318 0.0 3.2 0.00 0.00 0.00 49 1012.9
20260904225902 35 318 1.6 3.2 0.00 0.00 0.00 49 1012.9
20260904225401 35 319 0.0 3.2 0.00 0.00 0.00 47 1012.9
20260904225138 35 319 0.0 4.8 0.00 0.00 0.00 46 1012.9
20260904224402 35 319 0.0 4.8 0.00 0.00 0.00 46 1012.9
20260904223900 35 320 0.0 4.8 0.00 0.00 0.00 46 1012.9
20260904223400 35 324 0.0 1.6 0.00 0.00 0.00 45 1012.9
20260904223117 35 324 0.0 4.8 0.00 0.00 0.00 45 1012.9
20260904222644 36 324 1.6 4.8 0.00 0.00 0.00 44 1012.9
20260904222113 36 294 0.0 4.8 0.00 0.00 0.00 45 1012.9
20260904221352 35 83 0.0 3.2 0.00 0.00 0.00 48 1012.9
20260904220852 36 83 1.6 6.4 0.00 0.00 0.00 45 1012.9
20260904220351 36 2 1.6 6.4 0.00 0.00 0.00 42 1012.9
20260904215855 36 338 0.0 3.2 0.00 0.00 0.00 43 1013.0
20260904214847 36 279 1.6 4.8 0.00 0.00 0.00 42 1013.0
20260904214609 37 279 1.6 4.8 0.00 0.00 0.00 45 1013.1
20260904213844 37 281 1.6 6.4 0.00 0.00 0.00 42 1013.1
20260904213345 37 278 1.6 6.4 0.00 0.00 0.00 42 1013.0
20260904212840 36 339 1.6 4.8 0.00 0.00 0.00 42 1013.0
20260904212339 37 340 1.6 4.8 0.00 0.00 0.00 41 1013.1
20260904211843 37 310 1.6 9.7 0.00 0.00 0.00 40 1013.1
20260904211334 37 296 1.6 9.7 0.00 0.00 0.00 38 1013.1
20260904210833 38 308 1.6 11.3 0.00 0.00 0.00 38 1013.1
20260904210337 38 358 3.2 11.3 0.00 0.00 0.00 39 1013.1
20260904205828 38 328 1.6 9.7 0.00 0.00 0.00 41 1013.2
20260904205326 38 322 1.6 6.4 0.00 0.00 0.00 39 1013.2